Weather History for Ada, OK

Change the Weather History Date:

Sunday, October 7, 2012

  Actual Average Record
Temperature  
Mean Temperature 45 °F -  
Max Temperature 53 °F 77 °F 96 °F (1931)
Min Temperature 37 °F 52 °F 30 °F (1952)
Degree Days  
Heating Degree Days 20    
Moisture  
Dew Point 33 °F    
Average Humidity 68    
Maximum Humidity 87    
Minimum Humidity 44    
Precipitation  
Precipitation 0.00 in - - ()
Sea Level Pressure  
Sea Level Pressure 30.28 in    
Wind  
Wind Speed 7 mph (NNE)    
Max Wind Speed 12 mph    
Max Gust Speed 17 mph    
Visibility 10 miles    
Events Rain    
Averages and records for this station are not official NWS values.
T = Trace of Precipitation, MM = Missing Value Source: NWS Daily Summary

Daily Weather History Graph

Daily Weather History Graph

Search for Another Location

Airport:

Trip Planner

Search our weather history database for the weather conditions in past years. The results will help you decide how hot, cold, wet, or windy it might be!

Date:

Astronomy

Oct. 07, 2012 Rise Set
Actual Time 7:26 AM CDT 7:01 PM CDT
Civil Twilight 7:01 AM CDT 7:26 PM CDT
Nautical Twilight 6:31 AM CDT 7:56 PM CDT
Astronomical Twilight 6:02 AM CDT 8:25 PM CDT
Moon No Moon Rise 1:54 PM CDT (10/7)
Length of Visible Light 12h 25m
Length of Day
11h 35m
Waning Gibbous, 56% of the Moon is Illuminated
Oct 7
Waning Gibbous
Oct 8
Last Quarter
Oct 15
New
Oct 21
First Quarter
Oct 29
Full

Hourly Weather History & Observations

Time (CDT) Temp. Windchill Dew Point Humidity Pressure Visibility Wind Dir Wind Speed Gust Speed Precip Events Conditions
12:15 AM 42.8 °F 38.6 °F 33.8 °F 70% 30.32 in 10.0 mi North 6.9 mph - N/A   Overcast
12:35 AM 42.8 °F 40.1 °F 33.8 °F 70% 30.32 in 10.0 mi North 4.6 mph - N/A   Overcast
12:55 AM 42.8 °F 38.0 °F 33.8 °F 70% 30.31 in 10.0 mi North 8.1 mph - N/A   Overcast
1:15 AM 42.8 °F 39.3 °F 33.8 °F 70% 30.32 in 10.0 mi North 5.8 mph - N/A   Overcast
1:35 AM 41.0 °F 36.4 °F 33.8 °F 76% 30.32 in 10.0 mi North 6.9 mph - N/A   Overcast
1:55 AM 41.0 °F 35.2 °F 33.8 °F 76% 30.33 in 10.0 mi North 9.2 mph - N/A   Overcast
2:15 AM 41.0 °F 37.1 °F 33.8 °F 76% 30.33 in 10.0 mi North 5.8 mph - N/A   Overcast
2:35 AM 41.0 °F 34.3 °F 33.8 °F 76% 30.32 in 10.0 mi North 11.5 mph - N/A   Mostly Cloudy
2:55 AM 41.0 °F 34.3 °F 33.8 °F 76% 30.32 in 10.0 mi North 11.5 mph 16.1 mph N/A   Overcast
3:15 AM 41.0 °F 35.8 °F 33.8 °F 76% 30.32 in 10.0 mi North 8.1 mph - N/A   Overcast
3:35 AM 39.2 °F 33.6 °F 33.8 °F 81% 30.32 in 10.0 mi North 8.1 mph - N/A   Mostly Cloudy
3:55 AM 39.2 °F 33.6 °F 33.8 °F 81% 30.31 in 10.0 mi North 8.1 mph - N/A   Scattered Clouds
4:15 AM 37.4 °F 31.4 °F 33.8 °F 87% 30.31 in 10.0 mi North 8.1 mph - N/A   Clear
4:35 AM 37.4 °F 32.8 °F 33.8 °F 87% 30.33 in 10.0 mi North 5.8 mph - N/A   Scattered Clouds
4:55 AM 37.4 °F 31.4 °F 33.8 °F 87% 30.32 in 10.0 mi North 8.1 mph - N/A   Scattered Clouds
5:15 AM 37.4 °F 29.8 °F 33.8 °F 87% 30.30 in 10.0 mi NNE 11.5 mph - N/A   Scattered Clouds
5:35 AM 37.4 °F 32.1 °F 33.8 °F 87% 30.29 in 10.0 mi North 6.9 mph - N/A   Scattered Clouds
5:55 AM 37.4 °F 32.1 °F 33.8 °F 87% 30.31 in 10.0 mi North 6.9 mph - N/A   Scattered Clouds
6:15 AM 37.4 °F 34.9 °F 33.8 °F 87% 30.33 in 10.0 mi NW 3.5 mph - N/A   Clear
6:35 AM 37.4 °F 33.8 °F 33.8 °F 87% 30.31 in 10.0 mi North 4.6 mph - N/A   Clear
6:55 AM 37.4 °F 34.9 °F 33.8 °F 87% 30.30 in 10.0 mi NNE 3.5 mph - N/A   Clear
7:15 AM 37.4 °F 34.9 °F 33.8 °F 87% 30.32 in 10.0 mi NNW 3.5 mph - N/A   Clear
7:35 AM 37.4 °F 34.9 °F 33.8 °F 87% 30.31 in 10.0 mi North 3.5 mph - N/A   Clear
7:55 AM 37.4 °F 32.1 °F 33.8 °F 87% 30.30 in 10.0 mi North 6.9 mph - N/A   Clear
8:15 AM 37.4 °F 30.8 °F 33.8 °F 87% 30.30 in 10.0 mi North 9.2 mph - N/A   Clear
8:35 AM 39.2 °F 35.0 °F 33.8 °F 81% 30.31 in 10.0 mi North 5.8 mph - N/A   Clear
8:55 AM 39.2 °F 35.9 °F 33.8 °F 81% 30.31 in 10.0 mi NE 4.6 mph - N/A   Clear
9:15 AM 41.0 °F 38.0 °F 32.0 °F 70% 30.34 in 10.0 mi North 4.6 mph - N/A   Clear
9:35 AM 42.8 °F 40.1 °F 32.0 °F 66% 30.34 in 10.0 mi NE 4.6 mph - N/A   Clear
9:55 AM 44.6 °F 40.2 °F 32.0 °F 61% 30.34 in 10.0 mi NNE 8.1 mph 16.1 mph N/A   Clear
10:15 AM 44.6 °F 40.7 °F 32.0 °F 61% 30.34 in 10.0 mi NNE 6.9 mph - N/A   Scattered Clouds
10:35 AM 44.6 °F 40.2 °F 32.0 °F 61% 30.33 in 10.0 mi ENE 8.1 mph - N/A   Clear
10:55 AM 44.6 °F 40.7 °F 32.0 °F 61% 30.33 in 10.0 mi NE 6.9 mph - N/A   Clear
11:15 AM 44.6 °F 41.4 °F 32.0 °F 61% 30.33 in 10.0 mi NE 5.8 mph - N/A   Clear
11:35 AM 44.6 °F 41.4 °F 32.0 °F 61% 30.33 in 10.0 mi ENE 5.8 mph - N/A   Clear
11:55 AM 46.4 °F 43.5 °F 32.0 °F 57% 30.33 in 10.0 mi East 5.8 mph - N/A   Clear
12:35 PM 48.2 °F - 32.0 °F 54% 30.30 in 10.0 mi ENE 5.8 mph - N/A   Clear
12:55 PM 50.0 °F - 32.0 °F 50% 30.30 in 10.0 mi NE 4.6 mph - N/A   Clear
1:15 PM 50.0 °F - 32.0 °F 50% 30.28 in 10.0 mi ENE 5.8 mph - N/A   Clear
1:35 PM 51.8 °F - 32.0 °F 47% 30.28 in 10.0 mi NNE 6.9 mph 17.3 mph N/A   Clear
1:55 PM 50.0 °F - 32.0 °F 50% 30.27 in 10.0 mi East 3.5 mph - N/A   Mostly Cloudy
2:15 PM 51.8 °F - 32.0 °F 47% 30.26 in 10.0 mi NNE 6.9 mph - N/A   Overcast
2:35 PM 51.8 °F - 32.0 °F 47% 30.24 in 10.0 mi North 5.8 mph - N/A   Overcast
2:55 PM 51.8 °F - 32.0 °F 47% 30.24 in 10.0 mi NE 6.9 mph - N/A   Mostly Cloudy
3:15 PM 51.8 °F - 32.0 °F 47% 30.23 in 10.0 mi NNE 9.2 mph - N/A   Overcast
3:35 PM 53.6 °F - 32.0 °F 44% 30.23 in 10.0 mi North 10.4 mph - N/A   Overcast
3:55 PM 51.8 °F - 32.0 °F 47% 30.23 in 10.0 mi NNE 6.9 mph - N/A   Overcast
4:15 PM 51.8 °F - 32.0 °F 47% 30.22 in 10.0 mi NNE 8.1 mph - N/A   Overcast
4:35 PM 51.8 °F - 33.8 °F 50% 30.22 in 10.0 mi North 10.4 mph - N/A   Overcast
4:55 PM 51.8 °F - 33.8 °F 50% 30.22 in 10.0 mi North 10.4 mph - N/A   Overcast
5:15 PM 50.0 °F - 33.8 °F 54% 30.22 in 10.0 mi North 10.4 mph - N/A   Overcast
5:35 PM 50.0 °F - 32.0 °F 50% 30.22 in 10.0 mi North 10.4 mph - N/A   Overcast
5:55 PM 50.0 °F - 32.0 °F 50% 30.22 in 10.0 mi North 6.9 mph - N/A   Overcast
6:15 PM 48.2 °F - 32.0 °F 54% 30.22 in 10.0 mi North 8.1 mph - N/A   Overcast
6:35 PM 48.2 °F - 32.0 °F 54% 30.22 in 10.0 mi NNE 10.4 mph - N/A   Overcast
6:55 PM 46.4 °F 42.4 °F 32.0 °F 57% 30.23 in 10.0 mi NNE 8.1 mph - N/A   Overcast
7:15 PM 46.4 °F 44.3 °F 32.0 °F 57% 30.23 in 10.0 mi North 4.6 mph - N/A Rain Light Rain
7:55 PM 46.4 °F 44.3 °F 33.8 °F 62% 30.23 in 10.0 mi North 4.6 mph - N/A   Overcast
8:15 PM 46.4 °F - 33.8 °F 62% 30.24 in 10.0 mi Calm Calm - N/A Rain Light Rain
8:35 PM 44.6 °F 40.2 °F 35.6 °F 71% 30.24 in 10.0 mi North 8.1 mph - N/A   Mostly Cloudy
8:55 PM 44.6 °F 41.4 °F 35.6 °F 71% 30.25 in 10.0 mi NNE 5.8 mph - N/A   Overcast
9:15 PM 44.6 °F 42.2 °F 35.6 °F 71% 30.25 in 10.0 mi North 4.6 mph - N/A   Overcast
9:35 PM 44.6 °F 41.4 °F 35.6 °F 71% 30.25 in 10.0 mi NNE 5.8 mph - N/A   Overcast
9:55 PM 44.6 °F 41.4 °F 37.4 °F 76% 30.24 in 10.0 mi NNE 5.8 mph - N/A   Overcast
10:15 PM 44.6 °F 41.4 °F 37.4 °F 76% 30.24 in 10.0 mi NNE 5.8 mph - N/A   Overcast
10:35 PM 42.8 °F 41.1 °F 35.6 °F 76% 30.24 in 10.0 mi NE 3.5 mph - N/A   Mostly Cloudy
10:55 PM 41.0 °F - 35.6 °F 81% 30.24 in 10.0 mi Calm Calm - N/A   Scattered Clouds
11:15 PM 41.0 °F 38.0 °F 35.6 °F 81% 30.24 in 10.0 mi NNE 4.6 mph - N/A   Scattered Clouds
11:35 PM 41.0 °F - 35.6 °F 81% 30.23 in 10.0 mi Calm Calm - N/A   Scattered Clouds
11:55 PM 39.2 °F 35.0 °F 35.6 °F 87% 30.23 in 10.0 mi North 5.8 mph - N/A   Clear